User: anonymous   Login
Location: Unspecified
(0.0000°N, 0.0000°E)
Time: 07:29:36
(UTC+00:00)
Language:

ALMASAT-1 - Orbit

View from above orbital plane
View from above orbital plane
View from above satellite
View from above satellite

Ground track
Ground track

The orbit data is extracted from the following two-line orbital elements,

1 38078U 12006B   17148.89203300 +.00028959 +38495-5 +32101-3 0  9998
2 38078 069.4383 184.2304 0314466 318.8996 038.9111 15.21374910281851
Epoch (UTC): 28 May 2017 21:24:31
Eccentricity: 0.0314466
inclination: 69.4383°
perigee height: 285 km
apogee height: 718 km
right ascension of ascending node: 184.2304°
argument of perigee: 318.8996°
revolutions per day: 15.21374910
mean anomaly at epoch: 38.9111°
orbit number at epoch: 28185

The dashed part of the orbit path shows where the satellite is in the earth's shadow,  

DLR